NZS8ML EKCH-LKPR

Flight info

Callsign NZS8ML
Flight time 1h 4m
Altitude 37000
Route SALLO M44 KOGIM DCT LUROS M725 HDO DCT GOLOP
Aircraft B738/M-SDE2E3FGHIRWXY/LB1

Departure

Time 2026-04-22 17:48
Airport Copenhagen Kastrup Airport (EKCH)

Arrival

Time 2026-04-22 18:52
Airport Václav Havel Airport Prague (LKPR)
Time Latitude Longitude Altitude Speed Heading
2026-04-22 17:19 55.62879 12.64066 23 ft 0 kts 11°
2026-04-22 17:34 55.62878 12.64066 23 ft 2 kts 11°
2026-04-22 17:34 55.62854 12.64052 28 ft 4 kts 34°
2026-04-22 17:34 55.62837 12.64019 28 ft 4 kts 66°
2026-04-22 17:34 55.62831 12.63974 25 ft 4 kts 90°
2026-04-22 17:35 55.62831 12.63970 28 ft 4 kts 92°
2026-04-22 17:35 55.62832 12.63942 24 ft 4 kts 100°
2026-04-22 17:35 55.62835 12.63918 28 ft 2 kts 104°
2026-04-22 17:38 55.62831 12.63931 25 ft 2 kts 120°
2026-04-22 17:38 55.62810 12.63958 23 ft 5 kts 156°
2026-04-22 17:38 55.62768 12.63942 23 ft 8 kts 210°
2026-04-22 17:38 55.62708 12.63923 23 ft 11 kts 150°
2026-04-22 17:39 55.62653 12.64058 23 ft 14 kts 123°
2026-04-22 17:39 55.62601 12.64200 23 ft 14 kts 123°
2026-04-22 17:39 55.62502 12.64470 23 ft 13 kts 123°
2026-04-22 17:40 55.62454 12.64600 23 ft 12 kts 123°
2026-04-22 17:40 55.62407 12.64725 23 ft 12 kts 123°
2026-04-22 17:40 55.62364 12.64839 23 ft 11 kts 123°
2026-04-22 17:40 55.62353 12.64868 26 ft 0 kts 123°
2026-04-22 17:41 55.62348 12.64881 24 ft 6 kts 128°
2026-04-22 17:41 55.62273 12.64849 24 ft 18 kts 215°
2026-04-22 17:41 55.62167 12.64716 25 ft 19 kts 212°
2026-04-22 17:42 55.62059 12.64596 23 ft 18 kts 214°
2026-04-22 17:42 55.61962 12.64504 25 ft 15 kts 188°
2026-04-22 17:42 55.61895 12.64510 26 ft 14 kts 169°
2026-04-22 17:42 55.61771 12.64555 25 ft 13 kts 170°
2026-04-22 17:43 55.61682 12.64565 23 ft 13 kts 196°
2026-04-22 17:43 55.61606 12.64483 25 ft 13 kts 213°
2026-04-22 17:43 55.61523 12.64389 23 ft 15 kts 213°
2026-04-22 17:43 55.61430 12.64283 23 ft 17 kts 213°
2026-04-22 17:44 55.61317 12.64151 23 ft 20 kts 213°
2026-04-22 17:44 55.61200 12.64016 24 ft 20 kts 213°
2026-04-22 17:44 55.61087 12.63885 25 ft 19 kts 212°
2026-04-22 17:44 55.60977 12.63760 23 ft 18 kts 213°
2026-04-22 17:45 55.60871 12.63639 25 ft 18 kts 212°
2026-04-22 17:45 55.60760 12.63514 23 ft 20 kts 213°
2026-04-22 17:45 55.60638 12.63362 23 ft 23 kts 219°
2026-04-22 17:45 55.60521 12.63217 23 ft 17 kts 183°
2026-04-22 17:46 55.60439 12.63346 24 ft 16 kts 122°
2026-04-22 17:46 55.60428 12.63482 27 ft 9 kts 45°
2026-04-22 17:46 55.60430 12.63485 23 ft 0 kts 43°
2026-04-22 17:47 55.60523 12.63630 26 ft 51 kts 40°
2026-04-22 17:47 55.60983 12.64341 23 ft 124 kts 41°
2026-04-22 17:48 55.61499 12.65136 27 ft 166 kts 39°
2026-04-22 17:48 55.62716 12.67088 927 ft 181 kts 36°
2026-04-22 17:48 55.63642 12.68551 1972 ft 177 kts 32°
2026-04-22 17:48 55.64622 12.70037 2516 ft 199 kts 32°
2026-04-22 17:49 55.65755 12.71710 2778 ft 222 kts 32°
2026-04-22 17:49 55.66959 12.73492 3309 ft 231 kts 34°
2026-04-22 17:49 55.68220 12.75368 3847 ft 243 kts 34°
2026-04-22 17:49 55.69550 12.77364 4358 ft 257 kts 38°
2026-04-22 17:50 55.70535 12.80064 5248 ft 269 kts 67°
2026-04-22 17:50 55.70676 12.83412 6190 ft 281 kts 97°
2026-04-22 17:50 55.69813 12.86575 7007 ft 295 kts 130°
2026-04-22 17:50 55.68097 12.88595 7797 ft 302 kts 158°
2026-04-22 17:51 55.66097 12.89807 8581 ft 307 kts 162°
2026-04-22 17:51 55.64045 12.90955 9368 ft 311 kts 161°
2026-04-22 17:51 55.61924 12.91791 10145 ft 316 kts 180°
2026-04-22 17:51 55.59759 12.91105 10697 ft 324 kts 205°
2026-04-22 17:52 55.57851 12.88832 10885 ft 341 kts 228°
2026-04-22 17:52 55.56179 12.85768 11219 ft 357 kts 230°
2026-04-22 17:52 55.54458 12.82537 11859 ft 363 kts 230°
2026-04-22 17:52 55.52580 12.79524 12604 ft 371 kts 214°
2026-04-22 17:53 55.50168 12.77893 13391 ft 376 kts 190°
2026-04-22 17:53 55.47557 12.77847 14181 ft 377 kts 173°
2026-04-22 17:53 55.44943 12.78448 14871 ft 380 kts 171°
2026-04-22 17:53 55.42311 12.79112 15535 ft 384 kts 171°
2026-04-22 17:54 55.39654 12.79743 16210 ft 387 kts 172°
2026-04-22 17:54 55.36975 12.80335 16894 ft 389 kts 172°
2026-04-22 17:54 55.35188 12.80728 17339 ft 391 kts 169°
2026-04-22 17:54 55.32594 12.82116 17940 ft 391 kts 150°
2026-04-22 17:55 55.30369 12.84812 18642 ft 388 kts 139°
2026-04-22 17:55 55.28248 12.87800 19243 ft 390 kts 138°
2026-04-22 17:55 55.26142 12.90819 19817 ft 393 kts 138°
2026-04-22 17:55 55.24021 12.93853 20379 ft 395 kts 138°
2026-04-22 17:56 55.21878 12.96892 20964 ft 397 kts 138°
2026-04-22 17:56 55.19721 12.99926 21534 ft 399 kts 138°
2026-04-22 17:56 55.17569 13.02934 22073 ft 402 kts 138°
2026-04-22 17:56 55.15340 13.06035 22618 ft 405 kts 138°
2026-04-22 17:57 55.13157 13.09065 23143 ft 407 kts 138°
2026-04-22 17:57 55.10919 13.12164 23671 ft 409 kts 138°
2026-04-22 17:57 55.08678 13.15262 24104 ft 412 kts 138°
2026-04-22 17:57 55.06426 13.18371 24555 ft 413 kts 138°
2026-04-22 17:58 55.04170 13.21481 25005 ft 414 kts 138°
2026-04-22 17:58 55.01904 13.24602 25433 ft 416 kts 137°
2026-04-22 17:58 54.99623 13.27739 25861 ft 418 kts 137°
2026-04-22 17:58 54.97343 13.30871 26274 ft 419 kts 137°
2026-04-22 17:59 54.95071 13.33987 26652 ft 421 kts 137°
2026-04-22 17:59 54.92721 13.37075 27027 ft 427 kts 143°
2026-04-22 17:59 54.89975 13.39183 27371 ft 440 kts 161°
2026-04-22 17:59 54.86941 13.40135 27782 ft 445 kts 166°
2026-04-22 18:00 54.83858 13.40885 28139 ft 448 kts 167°
2026-04-22 18:00 54.80763 13.41624 28469 ft 450 kts 166°
2026-04-22 18:00 54.77642 13.42406 28812 ft 452 kts 166°
2026-04-22 18:00 54.74532 13.43223 29164 ft 453 kts 165°
2026-04-22 18:01 54.71414 13.44055 29542 ft 454 kts 165°
2026-04-22 18:01 54.68289 13.44893 29884 ft 455 kts 165°
2026-04-22 18:01 54.65143 13.45738 30196 ft 457 kts 165°
2026-04-22 18:01 54.61992 13.46583 30471 ft 459 kts 165°
2026-04-22 18:02 54.58836 13.47426 30769 ft 459 kts 164°
2026-04-22 18:02 54.55727 13.48252 31167 ft 457 kts 164°
2026-04-22 18:02 54.52593 13.49081 31596 ft 454 kts 164°
2026-04-22 18:02 54.49484 13.49903 31965 ft 452 kts 163°
2026-04-22 18:03 54.46365 13.50729 32295 ft 452 kts 163°
2026-04-22 18:03 54.43254 13.51552 32617 ft 451 kts 163°
2026-04-22 18:03 54.40156 13.52371 32977 ft 450 kts 163°
2026-04-22 18:03 54.37070 13.53184 33324 ft 448 kts 163°
2026-04-22 18:04 54.33984 13.53997 33658 ft 448 kts 163°
2026-04-22 18:04 54.30904 13.54807 33980 ft 447 kts 162°
2026-04-22 18:04 54.27870 13.55603 34274 ft 446 kts 162°
2026-04-22 18:04 54.24801 13.56407 34538 ft 445 kts 162°
2026-04-22 18:05 54.21734 13.57210 34777 ft 445 kts 163°
2026-04-22 18:05 54.18660 13.58014 34999 ft 446 kts 163°
2026-04-22 18:05 54.15593 13.58815 35233 ft 445 kts 163°
2026-04-22 18:05 54.12535 13.59612 35475 ft 445 kts 163°
2026-04-22 18:06 54.09475 13.60408 35683 ft 445 kts 163°
2026-04-22 18:06 54.06413 13.61204 35902 ft 445 kts 163°
2026-04-22 18:06 54.03354 13.61997 36127 ft 445 kts 163°
2026-04-22 18:06 54.00291 13.62790 36336 ft 445 kts 164°
2026-04-22 18:07 53.97261 13.63574 36525 ft 445 kts 164°
2026-04-22 18:07 53.94200 13.64365 36731 ft 445 kts 164°
2026-04-22 18:07 53.91134 13.65155 36935 ft 445 kts 164°
2026-04-22 18:07 53.88076 13.65942 37128 ft 445 kts 164°
2026-04-22 18:08 53.85011 13.66731 37223 ft 447 kts 165°
2026-04-22 18:08 53.78833 13.68317 37234 ft 447 kts 165°
2026-04-22 18:09 53.72716 13.69877 37226 ft 444 kts 165°
2026-04-22 18:09 53.66601 13.71435 37245 ft 444 kts 165°
2026-04-22 18:10 53.60503 13.72989 37250 ft 446 kts 165°
2026-04-22 18:10 53.54351 13.74549 37239 ft 446 kts 165°
2026-04-22 18:11 53.48211 13.76099 37241 ft 445 kts 165°
2026-04-22 18:11 53.42084 13.77641 37244 ft 444 kts 165°
2026-04-22 18:12 53.36010 13.79167 37241 ft 444 kts 165°
2026-04-22 18:12 53.30897 13.80449 37236 ft 443 kts 165°
2026-04-22 18:13 53.23795 13.82225 37242 ft 443 kts 165°
2026-04-22 18:13 53.17690 13.83745 37253 ft 444 kts 165°
2026-04-22 18:14 53.11577 13.85264 37247 ft 444 kts 165°
2026-04-22 18:14 53.05458 13.86780 37248 ft 444 kts 165°
2026-04-22 18:15 52.99334 13.88292 37251 ft 445 kts 165°
2026-04-22 18:15 52.93239 13.89793 37249 ft 446 kts 165°
2026-04-22 18:16 52.87083 13.91306 37253 ft 446 kts 165°
2026-04-22 18:16 52.80925 13.92814 37248 ft 447 kts 165°
2026-04-22 18:17 52.74758 13.94320 37250 ft 447 kts 165°
2026-04-22 18:17 52.68638 13.95810 37251 ft 447 kts 165°
2026-04-22 18:18 52.62482 13.97304 37251 ft 447 kts 165°
2026-04-22 18:18 52.56322 13.98795 37253 ft 448 kts 165°
2026-04-22 18:19 52.50143 14.00286 37252 ft 448 kts 165°
2026-04-22 18:19 52.43974 14.01771 37252 ft 448 kts 165°
2026-04-22 18:20 52.37795 14.03253 37250 ft 449 kts 165°
2026-04-22 18:20 52.31651 14.04724 37257 ft 449 kts 165°
2026-04-22 18:21 52.25458 14.06202 37246 ft 449 kts 165°
2026-04-22 18:21 52.19261 14.07677 37255 ft 450 kts 165°
2026-04-22 18:22 52.13052 14.09151 37253 ft 451 kts 165°
2026-04-22 18:22 52.06818 14.10627 37252 ft 452 kts 165°
2026-04-22 18:23 52.00580 14.12098 37251 ft 453 kts 166°
2026-04-22 18:23 51.94372 14.13559 37248 ft 453 kts 166°
2026-04-22 18:24 51.88090 14.15036 36736 ft 460 kts 165°
2026-04-22 18:24 51.84928 14.15777 36215 ft 458 kts 165°
2026-04-22 18:24 51.78706 14.17218 35378 ft 448 kts 164°
2026-04-22 18:25 51.75638 14.17929 35184 ft 438 kts 163°
2026-04-22 18:25 51.72612 14.18631 34573 ft 439 kts 163°
2026-04-22 18:25 51.69646 14.19320 34176 ft 435 kts 162°
2026-04-22 18:26 51.63701 14.20704 33263 ft 427 kts 163°
2026-04-22 18:26 51.60780 14.21380 32874 ft 421 kts 163°
2026-04-22 18:26 51.57891 14.22049 32464 ft 417 kts 164°
2026-04-22 18:26 51.55034 14.22710 32084 ft 413 kts 164°
2026-04-22 18:27 51.52193 14.23367 31683 ft 409 kts 164°
2026-04-22 18:27 51.49380 14.24016 31300 ft 406 kts 165°
2026-04-22 18:27 51.46598 14.24658 30925 ft 403 kts 165°
2026-04-22 18:27 51.43829 14.25295 30547 ft 399 kts 165°
2026-04-22 18:28 51.41084 14.25927 30146 ft 396 kts 165°
2026-04-22 18:28 51.38367 14.26550 29725 ft 393 kts 165°
2026-04-22 18:28 51.35707 14.27159 29353 ft 388 kts 166°
2026-04-22 18:28 51.33039 14.27769 28972 ft 384 kts 166°
2026-04-22 18:29 51.30405 14.28371 28582 ft 380 kts 166°
2026-04-22 18:29 51.27798 14.28966 28199 ft 377 kts 166°
2026-04-22 18:29 51.25209 14.29557 27833 ft 373 kts 166°
2026-04-22 18:29 51.22642 14.30142 27447 ft 371 kts 166°
2026-04-22 18:30 51.20097 14.30722 27073 ft 368 kts 166°
2026-04-22 18:30 51.15057 14.31868 26350 ft 363 kts 166°
2026-04-22 18:30 51.12569 14.32433 25987 ft 361 kts 166°
2026-04-22 18:31 51.10088 14.32996 25631 ft 359 kts 166°
2026-04-22 18:31 51.07618 14.33555 25269 ft 357 kts 166°
2026-04-22 18:31 51.05162 14.34111 24914 ft 355 kts 166°
2026-04-22 18:31 51.02744 14.34658 24561 ft 354 kts 166°
2026-04-22 18:32 51.00301 14.35210 24216 ft 353 kts 166°
2026-04-22 18:32 50.97869 14.35758 23865 ft 352 kts 166°
2026-04-22 18:32 50.95447 14.36304 23440 ft 351 kts 167°
2026-04-22 18:32 50.93039 14.36849 23057 ft 349 kts 166°
2026-04-22 18:33 50.90670 14.37573 22722 ft 344 kts 162°
2026-04-22 18:33 50.88384 14.38423 22356 ft 341 kts 161°
2026-04-22 18:33 50.86086 14.39316 22003 ft 339 kts 161°
2026-04-22 18:33 50.83771 14.40216 21640 ft 338 kts 161°
2026-04-22 18:34 50.81488 14.41091 21304 ft 337 kts 161°
2026-04-22 18:34 50.79237 14.41943 20965 ft 337 kts 161°
2026-04-22 18:34 50.76963 14.42796 20624 ft 336 kts 161°
2026-04-22 18:34 50.74681 14.43648 20289 ft 337 kts 161°
2026-04-22 18:35 50.72385 14.44502 19943 ft 338 kts 162°
2026-04-22 18:35 50.70082 14.45343 19510 ft 340 kts 162°
2026-04-22 18:35 50.67777 14.46128 18777 ft 346 kts 163°
2026-04-22 18:35 50.65407 14.46911 18031 ft 349 kts 164°
2026-04-22 18:36 50.63031 14.47688 17413 ft 347 kts 164°
2026-04-22 18:36 50.60677 14.48458 16865 ft 344 kts 164°
2026-04-22 18:36 50.58341 14.49224 16288 ft 341 kts 165°
2026-04-22 18:36 50.56021 14.49989 15718 ft 340 kts 165°
2026-04-22 18:37 50.53712 14.50752 15166 ft 338 kts 165°
2026-04-22 18:37 50.51415 14.51511 14636 ft 336 kts 165°
2026-04-22 18:37 50.50643 14.51767 14451 ft 335 kts 165°
2026-04-22 18:37 50.49290 14.52215 14139 ft 334 kts 165°
2026-04-22 18:38 50.47011 14.52970 13456 ft 335 kts 165°
2026-04-22 18:38 50.44738 14.53721 12949 ft 331 kts 166°
2026-04-22 18:38 50.42506 14.54456 12541 ft 324 kts 166°
2026-04-22 18:39 50.38172 14.55884 11867 ft 315 kts 166°
2026-04-22 18:39 50.36028 14.56590 11540 ft 314 kts 166°
2026-04-22 18:39 50.33921 14.57284 11227 ft 313 kts 166°
2026-04-22 18:39 50.31784 14.57987 10893 ft 313 kts 166°
2026-04-22 18:40 50.29660 14.58686 10610 ft 310 kts 166°
2026-04-22 18:40 50.27563 14.59373 10464 ft 303 kts 166°
2026-04-22 18:40 50.25530 14.60039 10324 ft 296 kts 166°
2026-04-22 18:40 50.24190 14.60477 10161 ft 294 kts 166°
2026-04-22 18:41 50.22186 14.61134 9849 ft 294 kts 166°
2026-04-22 18:41 50.20191 14.61787 9548 ft 293 kts 166°
2026-04-22 18:41 50.18200 14.62438 9264 ft 292 kts 166°
2026-04-22 18:41 50.16218 14.63085 8952 ft 290 kts 166°
2026-04-22 18:42 50.14245 14.63729 8660 ft 289 kts 166°
2026-04-22 18:42 50.12277 14.64371 8375 ft 288 kts 166°
2026-04-22 18:42 50.10320 14.65008 8102 ft 286 kts 166°
2026-04-22 18:42 50.08372 14.65643 7852 ft 284 kts 167°
2026-04-22 18:43 50.06448 14.66269 7592 ft 282 kts 167°
2026-04-22 18:43 50.04555 14.66848 7322 ft 277 kts 168°
2026-04-22 18:43 50.02689 14.67401 7024 ft 270 kts 168°
2026-04-22 18:43 50.00855 14.67941 6720 ft 265 kts 168°
2026-04-22 18:44 49.99052 14.68473 6386 ft 261 kts 168°
2026-04-22 18:44 49.97284 14.68998 6047 ft 257 kts 168°
2026-04-22 18:44 49.95548 14.69513 5736 ft 249 kts 168°
2026-04-22 18:44 49.93890 14.69715 5541 ft 234 kts 189°
2026-04-22 18:45 49.92450 14.68821 5297 ft 218 kts 226°
2026-04-22 18:45 49.91692 14.66961 5211 ft 199 kts 259°
2026-04-22 18:45 49.91609 14.64884 5274 ft 190 kts 283°
2026-04-22 18:45 49.91955 14.62926 5309 ft 187 kts 298°
2026-04-22 18:46 49.92592 14.61203 5330 ft 182 kts 311°
2026-04-22 18:46 49.93422 14.59715 5332 ft 184 kts 316°
2026-04-22 18:46 49.94323 14.58137 5429 ft 205 kts 314°
2026-04-22 18:46 49.95173 14.56538 5494 ft 180 kts 313°
2026-04-22 18:47 49.95945 14.55024 5470 ft 181 kts 312°
2026-04-22 18:47 49.96729 14.53456 5468 ft 186 kts 311°
2026-04-22 18:47 49.97535 14.51826 5124 ft 192 kts 311°
2026-04-22 18:47 49.98338 14.50185 4837 ft 188 kts 311°
2026-04-22 18:48 49.99126 14.48579 4376 ft 190 kts 311°
2026-04-22 18:48 49.99891 14.47011 4159 ft 173 kts 311°
2026-04-22 18:48 50.00579 14.45597 4021 ft 154 kts 312°
2026-04-22 18:48 50.01174 14.44368 3942 ft 131 kts 313°
2026-04-22 18:49 50.01714 14.43273 3635 ft 147 kts 313°
2026-04-22 18:49 50.02417 14.41887 3415 ft 154 kts 310°
2026-04-22 18:49 50.03029 14.40575 3121 ft 146 kts 313°
2026-04-22 18:49 50.03615 14.39408 2935 ft 132 kts 312°
2026-04-22 18:50 50.04139 14.38271 2725 ft 127 kts 310°
2026-04-22 18:50 50.04698 14.37070 2574 ft 139 kts 311°
2026-04-22 18:50 50.05282 14.35935 2427 ft 135 kts 314°
2026-04-22 18:50 50.05864 14.34758 2374 ft 140 kts 310°
2026-04-22 18:51 50.06442 14.33489 2222 ft 146 kts 311°
2026-04-22 18:51 50.07078 14.32248 1968 ft 150 kts 309°
2026-04-22 18:51 50.07692 14.30965 1829 ft 142 kts 309°
2026-04-22 18:51 50.08279 14.29746 1520 ft 142 kts 308°
2026-04-22 18:52 50.08877 14.28512 1322 ft 143 kts 308°
2026-04-22 18:52 50.09467 14.27292 1208 ft 136 kts 307°
2026-04-22 18:52 50.09930 14.26341 1197 ft 80 kts 308°
2026-04-22 18:52 50.10164 14.25858 1187 ft 41 kts 306°
2026-04-22 18:53 50.10331 14.25668 1184 ft 29 kts 347°
2026-04-22 18:53 50.10418 14.25659 1182 ft 0 kts
2026-04-22 18:54 50.10420 14.25659 1182 ft 1 kts
2026-04-22 18:54 50.10426 14.25660 1182 ft 1 kts
2026-04-22 18:54 50.10440 14.25663 1182 ft 3 kts 10°
2026-04-22 18:55 50.10464 14.25678 1177 ft 5 kts 30°
2026-04-22 18:55 50.10485 14.25738 1178 ft 8 kts 76°
2026-04-22 18:55 50.10499 14.25850 1176 ft 12 kts 79°
2026-04-22 18:55 50.10515 14.25986 1172 ft 13 kts 77°
2026-04-22 18:56 50.10534 14.26123 1170 ft 13 kts 78°
2026-04-22 18:56 50.10528 14.26255 1170 ft 12 kts 113°
2026-04-22 18:56 50.10482 14.26366 1172 ft 12 kts 126°
2026-04-22 18:56 50.10434 14.26472 1172 ft 12 kts 125°
2026-04-22 18:57 50.10387 14.26575 1169 ft 11 kts 124°
2026-04-22 18:57 50.10369 14.26616 1171 ft 0 kts 125°
2026-04-22 18:57 50.10367 14.26621 1171 ft 2 kts 124°